Flag for Micronesia Weather past 2 weeks in Palikir, Pohnpei, Micronesia

Now
78 °F

Sprinkles. Mostly cloudy.


Feels Like: 81 °F
Forecast: 80 / 85 °F
Wind: 5 mph from Southwest

Location: Pohnpei

Current Time: Jul 2, 2015 at 12:39:58 AM

Latest Report: Jul 1, 2015 at 11:54 PM


Visibility: 10 mi

Pressure: 29.77 "Hg

Humidity: 96%

Dew point: 77 °F

Location of PalikirLocation

Historic Weather in Palikir — Graph

°F

Palikir temperature yesterday

Maximum temperature yesterday: 85 °F (at 11:54 AM)
Minimum temperature yesterday: 76 °F (at 10:54 PM)
Average temperature yesterday: 80 °F

Past Weeks' High & Low Weather Summary

 TemperatureHumidityPressure
High89 °F (Jun 20, 11:50 AM)100% (Jun 20, 6:52 AM)29.90 "Hg (Jun 20, 6:52 AM)
Low75 °F (Jun 28, 5:53 AM)67% (Jun 20, 12:51 PM)29.71 "Hg (Jul 1, 3:50 PM)
Average81 °F87%29.81 "Hg
* Reported Jun 16 10:53 PM — Jul 1 10:54 PM, Palikir, Weather by CustomWeather, © 2015

Note: Actual official high and low records may vary slightly from our data, if they occured in-between our weather recording intervals... More about our weather records

Advertising

Palikir weather history for previous 24 hours

 ConditionsComfort  
Time TempWeatherWind HumidityBarometerVisibility
10:54 PM
Wed, Jul 1
76 °FSprinkles. Mostly cloudy.5 mph96%29.80 "Hg5 mi
9:53 PM78 °FSprinkles. Mostly cloudy.6 mph96%29.78 "Hg12 mi
8:53 PM77 °FMostly cloudy.6 mph94%29.78 "Hg15 mi
7:52 PM80 °FSprinkles. Mostly cloudy.5 mph89%29.75 "Hg12 mi
6:52 PM78 °FMostly cloudy.5 mph94%29.73 "Hg15 mi
5:53 PM78 °FMostly cloudy.6 mph95%29.72 "Hg15 mi
4:54 PM78 °FRain showers. Mostly cloudy.9 mph95%29.72 "Hg10 mi
3:50 PM83 °FMostly cloudy.6 mph84%29.71 "Hg15 mi
2:53 PM81 °FSprinkles. Mostly cloudy.6 mph92%29.72 "Hg12 mi
1:52 PM80 °FSprinkles. Mostly cloudy.9 mph92%29.74 "Hg12 mi
12:50 PM85 °FMostly cloudy.7 mph81%29.75 "Hg15 mi
11:54 AM85 °FMostly cloudy.7 mph77%29.76 "Hg15 mi
10:54 AM83 °FMostly cloudy.7 mph82%29.78 "Hg15 mi
9:50 AM84 °FMostly cloudy.6 mph84%29.79 "Hg15 mi
8:54 AM84 °FSprinkles. Mostly cloudy.7 mph80%29.79 "Hg12 mi
7:55 AM80 °FMostly cloudy.7 mph88%29.77 "Hg15 mi
6:50 AM78 °FMostly cloudy.5 mph95%29.76 "Hg15 mi
2:50 AM81 °FMostly cloudy.7 mph83%29.74 "Hg15 mi
1:53 AM78 °FSprinkles. Mostly cloudy.7 mph95%29.77 "Hg12 mi
12:50 AM78 °FSprinkles. Mostly cloudy.9 mph96%29.79 "Hg12 mi
Weather by CustomWeather, © 2015

See weather overviewHow to use our weather pages